GFSSE_con_3kmhel_048.txt.gz
Helicity
66 92 138 147 144 118 111 95 86 82 82 83 82 80 80 63 56 48 41 36 34 38 32 33 44 54 63 77 74 32 18 14 17 23 23 30 29 45 60 67 54 46 61
123 93 145 154 163 126 115 105 90 77 77 80 76 68 87 60 49 44 34 25 22 30 33 43 51 59 88 115 82 25 4 -7 18 29 24 10 31 50 59 65 59 49 70
140 121 156 149 197 126 106 100 79 72 77 77 71 79 83 58 44 37 33 30 33 46 63 68 73 82 112 142 164 125 18 -10 13 17 -12 -61 -24 38 58 69 73 87 82
167 166 198 254 217 128 101 77 68 68 68 83 82 86 75 56 48 44 36 36 42 51 60 66 82 85 93 103 139 124 94 56 42 22 -37 -55 -30 27 41 55 71 81 86
212 235 221 214 160 117 86 78 69 64 69 81 87 63 50 44 41 41 40 42 41 46 49 60 78 113 119 103 95 77 57 58 40 6 -33 -28 -35 6 29 40 42 58 68
233 233 196 190 142 100 83 61 53 71 81 81 68 38 40 46 45 41 36 36 40 43 46 48 62 80 105 124 98 96 47 55 23 -2 -1 -16 -37 32 30 34 52 57 62
293 217 158 142 130 86 59 49 51 72 65 48 42 29 39 44 43 43 40 40 43 38 41 49 51 54 64 76 107 67 64 36 16 1 3 -14 -19 26 25 23 43 68 72
265 177 144 100 57 63 40 19 70 60 49 38 30 34 31 32 35 42 49 48 45 43 42 49 42 43 55 59 66 81 56 37 27 16 -6 -23 24 39 26 19 43 80 102
117 146 233 285 137 5 20 59 49 33 23 18 16 15 20 25 32 38 49 53 53 48 43 51 56 50 42 52 56 60 67 50 1 14 7 -13 31 45 44 41 59 92 101
208 182 135 225 15 16 30 42 31 15 19 10 2 10 16 21 26 38 49 50 49 40 64 78 64 61 63 49 47 33 45 47 1 22 22 28 60 51 38 32 47 64 89
156 68 96 34 -29 -29 21 6 12 8 -9 -5 -1 -0 6 13 31 41 39 50 53 61 87 91 93 90 88 83 67 48 43 21 26 9 9 40 77 88 64 49 55 61 76
72 30 -103 -97 -31 7 -0 -23 -33 -27 -24 -4 -17 -11 -0 9 26 41 50 78 81 100 104 119 136 134 112 87 66 71 43 51 54 28 30 55 70 82 73 44 53 66 60
-103 -123 -92 -26 27 12 3 -25 -36 -0 3 -18 -9 3 14 12 72 55 82 68 86 136 130 138 129 123 128 106 109 89 78 81 67 51 61 73 73 73 86 83 76 49 69
-82 -51 1 23 11 -9 -20 -11 7 14 17 9 31 -13 -3 14 51 85 105 119 146 131 161 139 126 128 127 116 117 123 115 95 76 75 83 66 78 89 104 109 92 66 55
-63 -18 17 23 -4 -12 37 24 8 55 46 69 70 105 92 102 118 122 151 188 193 155 148 139 126 132 127 114 122 116 107 94 88 85 89 86 60 99 137 145 133 105 98
-53 5 43 12 -33 7 33 44 64 65 72 87 120 131 157 193 183 175 182 191 203 192 144 123 116 119 112 101 106 108 119 96 88 82 75 111 61 124 149 156 128 114 56
40 96 85 65 70 98 99 94 90 102 90 122 133 153 206 221 220 206 195 218 202 179 158 129 120 102 116 100 81 92 95 89 87 91 91 135 148 153 167 185 174 158 133
106 199 192 153 157 160 155 161 159 147 151 159 166 164 209 226 219 196 164 178 180 166 112 105 79 85 49 20 24 65 68 63 62 87 125 209 249 214 188 224 213 202 176
146 256 236 212 211 206 200 204 197 188 201 176 170 179 199 203 151 126 146 177 196 142 116 87 58 12 13 21 34 37 35 21 52 89 125 172 218 242 236 237 239 213 205
148 173 240 207 220 237 249 261 248 236 212 180 147 142 136 133 129 145 203 180 137 130 117 68 34 38 22 16 -0 2 1 1 67 81 112 120 136 180 184 189 187 174 186
141 175 216 245 224 264 252 250 224 221 180 135 108 131 135 130 135 160 158 145 126 97 54 46 43 34 43 29 22 26 -0 12 73 69 64 98 98 103 127 132 147 187 181
267 199 213 222 216 206 227 236 215 191 114 77 115 137 136 129 128 139 121 65 62 69 71 70 72 71 48 54 59 49 81 70 71 79 87 81 119 119 143 138 170 167 150
332 270 243 227 223 206 226 261 267 239 162 168 151 118 102 112 113 124 92 122 65 115 89 87 85 89 74 64 81 117 128 141 133 97 95 117 101 119 143 142 154 164 162
391 329 320 289 225 217 232 253 268 216 249 144 137 136 153 134 136 129 135 159 129 163 171 121 109 84 85 94 108 120 157 196 188 166 154 169 165 147 153 153 150 132 122
527 448 348 314 220 187 223 223 186 177 194 189 203 192 169 162 224 312 325 264 278 256 187 171 145 131 99 106 129 132 156 196 213 214 165 204 241 155 164 155 133 108 106
380 337 348 314 207 142 187 163 146 186 205 235 263 245 227 403 426 440 412 361 357 279 227 196 167 154 157 150 156 159 182 210 234 233 192 193 194 172 190 141 143 139 119

GFSSE_con_3kmhel_051.txt.gz
Helicity
107 69 119 119 163 181 175 163 134 124 108 102 104 103 110 99 97 85 73 62 62 70 85 97 87 61 28 3 2 18 30 35 36 30 10 39 54 60 54 60 60 52 79
170 96 152 153 180 193 170 156 148 110 99 94 94 103 118 109 84 78 59 52 56 63 82 99 107 78 52 7 8 -9 34 45 34 17 17 33 46 44 52 60 62 59 75
192 143 174 155 177 181 161 176 125 96 86 88 90 109 115 86 62 50 42 42 44 61 94 111 124 110 104 79 12 4 29 34 22 5 -7 -44 -10 40 47 48 57 66 77
173 144 179 181 207 197 287 153 101 81 76 74 85 97 84 60 46 47 43 49 58 75 110 120 131 130 107 75 50 49 51 42 25 3 -34 -39 -17 35 42 53 57 69 81
156 158 184 187 190 197 173 116 83 71 68 52 78 82 60 57 48 47 53 63 80 91 96 99 100 111 108 63 52 57 67 51 30 3 -15 -11 -15 44 55 49 55 68 81
176 164 170 176 210 174 133 105 81 55 61 65 83 61 60 53 52 56 65 74 65 70 85 97 109 90 89 84 42 69 72 61 39 19 9 5 -9 54 57 54 67 83 95
226 170 214 187 166 118 89 77 60 52 52 69 43 48 45 50 52 54 57 55 60 66 68 68 75 94 83 78 65 30 56 65 27 16 14 6 7 48 40 37 60 85 102
255 208 211 153 117 107 94 55 35 27 81 36 27 40 47 32 42 54 51 53 53 62 67 73 65 61 78 65 60 57 31 28 12 17 18 8 54 61 60 60 69 82 87
290 336 245 204 99 75 37 39 -3 57 27 18 5 17 33 29 42 45 50 62 67 78 73 81 90 75 67 82 79 53 42 38 15 15 14 4 64 68 62 62 64 86 104
99 191 263 191 222 71 32 10 54 26 11 -28 -8 9 20 36 35 46 69 83 99 95 105 108 114 109 86 88 70 57 63 64 42 34 32 35 91 96 71 61 68 76 93
263 298 212 198 234 117 -16 -19 -5 -13 -3 -5 -15 14 32 39 68 84 86 131 120 112 114 117 116 109 96 84 81 94 85 35 42 27 40 48 85 87 83 79 55 67 82
179 107 77 295 176 -7 -58 -53 -16 5 -4 -39 27 31 68 78 80 95 118 113 111 115 154 148 133 132 100 60 65 78 53 64 60 52 61 80 92 95 76 65 44 48 61
184 40 -30 -55 -178 -120 -11 27 7 -24 -61 26 11 63 74 92 104 102 89 86 88 129 131 129 125 113 110 97 88 75 89 89 81 90 106 105 96 98 120 97 55 53 34
-126 -123 -135 -76 -52 5 2 -16 -12 -33 -1 15 12 48 55 88 104 95 86 90 115 124 160 154 139 115 129 121 111 116 112 102 97 88 102 99 70 90 130 105 72 56 16
-70 -29 11 27 47 16 -2 -14 -32 -27 -2 24 -8 14 48 72 92 116 152 143 152 153 157 185 150 130 114 109 117 124 125 124 112 89 82 98 74 99 127 112 97 90 34
-8 6 34 40 20 10 20 -5 -4 7 47 46 48 46 78 115 149 170 184 198 188 170 175 186 153 113 107 116 123 109 104 116 97 87 76 106 144 175 189 164 136 108 61
-3 -9 35 52 49 64 51 21 12 36 76 83 82 101 124 167 205 207 224 218 202 196 210 185 146 118 130 93 99 75 70 86 88 84 74 102 145 202 248 176 152 138 122
60 87 80 60 59 43 30 24 41 69 97 105 101 130 167 199 232 257 262 215 198 214 189 142 101 113 95 55 11 12 42 72 65 60 76 89 126 155 185 226 211 175 146
74 107 83 64 71 38 33 66 88 119 109 110 140 168 188 218 235 257 231 204 206 185 137 95 90 54 16 7 6 -5 11 44 23 45 86 115 133 146 142 156 141 124 123
-7 47 90 68 72 79 112 142 151 162 165 159 166 173 194 211 231 256 228 202 160 144 114 90 57 9 23 12 -22 -40 7 21 51 46 70 86 88 105 105 113 141 170 196
68 90 162 149 139 174 208 227 214 204 211 190 165 161 178 218 222 218 188 154 138 148 124 71 10 36 35 4 -10 18 -41 -17 63 69 72 67 68 93 114 141 160 169 173
143 156 196 190 230 209 228 238 223 235 218 202 178 163 189 195 190 178 154 135 134 161 114 77 30 38 33 29 25 16 70 70 62 52 65 36 52 70 90 128 155 167 179
180 214 228 199 220 230 232 293 276 300 266 236 206 193 183 158 152 137 132 150 165 116 114 77 66 82 64 40 68 63 92 114 137 69 64 66 58 77 101 133 129 143 161
235 223 221 224 217 196 257 276 315 296 295 200 197 196 175 150 138 159 205 200 166 163 136 113 148 82 51 103 63 46 77 127 139 165 114 121 115 101 132 125 117 130 140
269 298 238 251 239 222 279 243 257 253 183 144 215 206 193 187 230 231 253 283 235 187 169 142 185 152 93 75 74 92 104 120 135 168 171 107 110 115 133 140 132 135 127
353 331 274 312 286 252 343 280 250 233 174 184 238 240 240 276 311 316 322 363 407 202 316 258 181 180 115 102 87 101 124 140 157 155 159 125 106 125 113 122 142 141 126

GFSSE_con_3kmhel_057.txt.gz
Helicity
187 170 176 168 194 223 245 248 245 230 212 178 171 170 189 141 114 83 89 85 60 45 38 46 62 74 75 75 67 57 45 37 38 45 59 66 64 63 61 76 72 78 85
237 191 192 172 197 209 216 229 244 226 199 175 159 178 170 121 98 107 92 82 63 45 33 46 45 49 47 51 48 49 43 42 49 51 43 52 55 49 51 53 66 62 82
216 219 172 187 180 203 217 240 242 208 159 133 155 169 145 114 111 105 87 71 62 62 42 32 36 43 48 53 50 49 50 46 40 37 23 22 37 50 52 51 53 58 66
207 188 148 174 171 198 211 210 176 124 106 136 165 159 143 121 112 97 87 71 65 65 56 42 40 47 54 54 58 59 52 43 32 10 12 14 25 42 49 56 58 60 56
182 189 135 184 189 192 161 132 115 108 132 145 158 152 133 112 110 92 82 67 53 44 50 45 46 53 63 60 58 61 56 43 18 12 21 16 29 43 49 54 54 66 82
140 179 181 208 222 161 140 144 133 128 139 165 128 149 129 108 98 74 59 60 56 44 37 48 57 65 61 53 52 56 44 34 5 26 24 21 38 50 58 63 73 71 68
226 102 168 174 215 203 171 153 162 122 175 134 111 154 115 81 82 61 48 45 53 66 68 64 63 54 55 55 58 48 44 24 21 20 21 27 41 54 63 67 72 82 97
257 275 212 163 302 187 263 177 171 157 153 79 156 103 100 81 79 57 40 42 63 75 83 76 75 61 51 56 60 43 29 5 14 20 15 28 53 70 74 74 72 79 90
326 309 287 672 665 375 218 131 129 141 80 111 99 136 101 112 73 55 53 54 53 72 93 81 85 82 66 60 61 51 30 18 18 7 15 25 52 62 67 68 62 77 89
217 282 219 175 47 132 49 36 144 123 74 58 116 149 121 94 82 88 91 86 85 91 78 101 84 72 81 86 63 43 34 25 27 26 20 44 65 71 63 65 70 81 97
222 277 387 459 398 237 384 71 47 46 41 108 144 120 107 66 68 50 84 103 115 117 127 106 105 124 117 92 71 67 43 26 35 29 34 59 82 86 74 56 50 65 78
194 186 167 225 328 473 523 224 168 30 73 106 100 97 79 68 45 72 84 109 136 145 124 109 119 113 61 37 50 64 33 40 48 50 59 71 71 94 85 55 43 48 56
148 144 175 267 232 236 202 82 -95 -33 35 70 75 94 85 78 63 68 64 73 77 87 79 98 90 65 46 42 43 37 49 56 53 52 60 49 45 100 107 75 55 24 28
115 100 136 105 40 -35 -23 -110 -55 -18 32 73 80 69 65 64 55 50 70 69 82 83 109 98 80 66 76 60 48 58 65 58 53 45 44 38 49 78 128 105 90 57 32
3 -33 -20 -7 -65 -107 -69 -54 -36 27 69 75 27 50 46 56 64 76 87 95 108 117 100 91 91 89 64 67 67 77 79 75 61 52 59 112 93 127 146 135 120 97 67
-51 -100 -201 -176 -105 -12 31 -21 -22 -11 -27 -18 18 56 41 50 82 92 111 127 139 118 116 112 94 69 71 67 78 84 76 70 76 79 67 115 230 233 205 172 142 133 111
-109 -130 -163 -9 -3 -33 -45 -31 -13 -46 47 53 43 -7 9 40 83 117 145 141 155 156 157 127 94 85 86 87 85 77 78 75 80 78 60 73 99 147 156 171 155 136 115
14 -21 -28 -20 -4 -23 -39 -47 29 12 18 31 16 -6 19 64 116 145 162 161 175 179 152 126 112 106 101 93 82 90 72 41 66 75 69 61 83 84 127 162 147 127 97
17 22 38 18 15 9 8 7 -9 -10 -12 9 26 39 54 93 132 151 156 177 201 187 146 127 123 108 115 116 105 57 47 31 40 62 62 103 113 102 107 123 126 131 131
33 17 12 13 25 25 13 12 -1 -28 -4 17 27 41 70 92 123 135 168 203 204 184 159 136 139 156 130 92 48 22 3 31 51 82 91 112 132 113 85 91 102 103 125
33 32 26 16 6 -1 10 -3 -15 8 24 36 49 55 73 106 140 154 199 227 202 171 165 174 173 139 111 86 47 26 17 0 41 88 85 137 128 106 81 80 72 67 95
78 97 65 46 30 32 24 29 36 47 39 59 97 100 100 132 148 164 217 220 215 219 205 175 155 145 136 95 36 31 35 83 85 60 99 127 150 143 114 117 114 87 106
28 61 72 57 47 52 57 81 106 105 76 94 118 127 123 103 131 160 205 227 238 234 216 213 212 177 124 103 56 11 42 94 193 117 132 187 163 194 191 155 154 149 152
-21 -22 9 38 47 59 85 97 127 128 129 139 180 170 136 132 163 187 223 259 255 268 283 262 224 184 152 103 94 63 120 142 144 157 165 164 171 196 190 168 174 177 206
-18 4 24 47 72 91 127 131 160 156 148 164 208 175 179 160 177 228 254 272 294 275 247 257 251 252 171 142 23 100 149 188 159 167 176 174 174 164 150 144 183 173 177
30 53 67 78 82 105 129 161 147 122 153 188 210 234 205 215 208 229 250 257 283 300 344 366 367 190 61 115 91 82 144 169 173 182 199 177 182 199 186 133 125 139 143

GFSSE_con_3kmhel_063.txt.gz
Helicity
117 154 165 173 191 186 186 181 178 167 151 135 120 107 107 77 52 47 38 33 61 62 65 54 45 46 35 37 39 32 22 15 15 22 41 67 72 85 106 148 63 79 92
121 123 179 159 186 204 195 192 183 163 149 138 116 106 86 76 66 61 51 45 56 57 48 38 34 30 31 34 34 24 2 -26 -20 2 -33 24 61 69 79 85 101 74 81
94 149 157 188 180 204 189 181 171 161 154 125 116 103 90 83 77 55 37 36 48 37 30 27 19 21 21 20 14 2 -20 -52 -81 -82 -23 16 36 55 60 73 80 67 84
118 176 156 216 190 192 178 169 169 159 148 125 120 115 105 85 67 44 35 18 30 23 20 16 18 16 14 11 2 -14 -43 -45 -33 -41 28 28 26 52 47 47 72 93 67
163 214 187 265 235 203 178 180 176 164 146 128 130 119 108 95 71 56 26 16 33 22 22 18 20 16 13 6 -7 -32 -61 -79 -93 27 53 43 26 43 56 78 56 63 79
108 199 263 329 248 199 181 187 167 152 144 139 123 118 132 113 98 91 60 38 45 32 31 26 21 12 12 1 -14 -35 -47 -34 -43 39 29 34 36 46 48 50 52 55 66
378 341 261 356 227 205 206 179 154 158 157 149 138 144 152 134 146 118 92 76 60 42 34 25 23 17 12 -2 -6 -24 -14 59 6 44 50 32 30 47 52 56 64 75 83
232 271 183 423 375 302 195 186 181 171 168 155 144 151 162 147 142 122 104 91 68 51 37 28 26 23 13 9 -1 -29 -51 -45 6 30 56 32 31 50 59 67 71 81 88
196 232 287 176 346 488 461 332 146 110 133 139 155 150 160 158 131 121 96 86 66 54 50 40 35 29 19 16 -8 -31 -30 -25 -3 18 62 52 40 48 51 60 71 82 92
207 476 508 579 484 365 229 139 173 78 66 103 128 185 179 132 115 112 101 86 83 75 57 36 37 39 31 3 -28 -33 -42 -70 -2 40 56 58 54 58 46 60 68 76 85
305 396 546 667 399 251 145 170 120 -20 -16 62 108 125 113 59 61 34 88 87 89 72 49 37 46 32 20 -20 -22 -25 -40 -13 2 34 61 38 61 68 59 49 57 64 68
219 338 384 276 338 273 61 65 81 71 -38 -1 37 49 67 69 40 56 99 100 87 72 46 43 12 -2 -64 6 11 -29 8 -12 6 29 74 64 63 74 70 67 56 66 62
185 221 175 178 177 144 177 86 102 6 -7 -5 10 43 52 57 83 63 54 42 33 37 33 22 -0 -30 41 34 24 11 8 4 7 30 68 64 66 96 93 74 62 55 55
231 256 308 223 199 153 114 67 131 48 -23 15 -23 9 32 30 20 46 21 30 25 14 29 12 40 56 57 43 29 28 24 18 19 38 59 73 76 100 84 82 66 63 64
197 161 110 106 40 62 108 146 57 -16 -42 11 -78 -0 -2 19 36 19 36 29 9 38 27 47 57 54 37 32 32 30 29 34 34 44 80 93 66 92 82 84 84 84 88
159 127 124 100 60 14 -8 20 8 -50 -71 -23 -16 -2 -5 -10 34 34 42 30 40 36 49 58 54 42 40 46 43 41 40 36 39 32 104 101 162 198 150 116 108 108 101
81 120 117 25 -68 -71 -53 -24 -11 -155 -41 -8 -17 -29 -3 4 45 56 44 53 48 46 80 92 70 50 55 61 65 49 56 42 47 29 20 142 124 158 162 154 124 107 92
48 4 -22 -69 -68 -37 -21 -62 -53 -8 -27 -23 -34 -43 -32 -23 31 43 47 74 71 83 107 96 59 71 73 69 82 72 65 60 56 34 41 64 104 179 149 150 125 106 111
16 -30 -32 -6 -7 4 -24 -12 -18 -41 -15 -27 -39 -43 -24 15 47 51 74 59 108 88 118 91 89 84 100 81 79 69 63 56 83 38 85 77 103 91 131 174 118 114 126
9 3 2 -7 5 -3 -34 -27 -34 -45 -33 -47 -42 -39 26 30 65 69 45 84 85 108 125 102 96 97 108 101 86 101 95 105 62 65 61 54 59 104 95 126 127 134 134
30 7 2 15 12 -9 -24 -31 -33 -31 -36 -33 -23 13 31 59 76 42 59 80 82 119 110 117 113 130 137 137 104 82 96 148 58 46 76 68 95 113 130 138 122 145 131
54 27 9 12 11 -8 -12 -16 -25 -22 -8 -5 7 41 55 80 71 70 77 102 106 142 144 143 133 140 142 141 124 151 103 157 122 113 49 70 106 94 123 150 205 117 99
50 39 26 25 25 3 -14 -17 -21 -20 -12 3 16 40 65 81 70 67 68 137 143 159 199 167 149 143 162 175 157 200 196 226 210 159 138 107 152 140 154 184 147 133 127
29 29 15 14 10 16 2 -9 4 10 28 33 31 66 100 77 80 58 83 139 152 159 233 196 157 156 155 215 202 180 201 223 154 151 178 148 186 180 125 121 157 127 125
35 25 16 10 -0 -1 25 -18 29 17 28 51 57 88 118 94 87 110 177 252 212 211 221 262 192 158 192 200 327 256 203 134 79 102 112 136 167 159 157 193 216 160 121
15 12 13 12 21 20 45 51 34 68 46 76 110 188 151 128 132 123 182 203 171 237 281 280 208 190 336 290 277 176 170 144 140 152 131 124 174 167 166 218 232 153 144

GFSSE_con_3kmhel_069.txt.gz
Helicity
159 114 135 254 184 232 206 186 179 175 180 149 136 132 137 131 112 104 106 110 103 89 79 74 73 74 61 54 49 23 13 33 61 75 64 68 60 69 80 93 95 80 79
230 272 86 192 175 196 168 173 177 163 147 113 106 98 109 103 99 104 96 104 100 92 83 68 56 52 48 57 46 14 -43 0 42 55 67 58 60 64 60 64 75 70 88
88 173 314 117 151 158 155 152 163 148 123 107 99 89 102 106 111 105 109 106 92 82 64 50 50 52 56 64 62 60 35 -33 67 48 58 36 17 49 59 52 63 66 67
-17 157 421 376 13 153 153 151 143 136 123 103 94 103 104 113 117 112 101 89 72 56 49 46 48 41 43 45 65 71 70 175 125 50 26 23 34 44 43 43 44 45 46
-50 -73 149 270 153 155 163 156 147 155 133 102 112 107 104 109 111 99 82 65 56 49 45 46 42 31 34 48 68 84 61 69 79 54 15 -2 0 28 44 49 51 46 67
34 84 224 39 59 191 183 180 198 177 146 127 121 103 112 107 105 91 69 60 51 44 38 27 19 7 11 33 87 119 55 69 33 15 -5 6 -9 32 36 40 41 46 57
182 232 304 331 316 349 172 234 220 192 147 125 118 100 121 108 110 90 71 61 46 35 28 20 14 3 9 37 109 167 52 35 -5 -11 -9 -14 1 34 39 44 44 52 60
209 252 222 220 354 178 100 265 255 209 169 147 117 97 112 101 110 89 72 58 37 28 25 19 10 10 21 54 122 180 110 33 20 3 -17 -20 28 36 41 41 46 55 62
252 284 221 288 311 359 109 631 396 310 271 196 134 116 130 114 108 99 80 56 39 36 31 23 23 -3 43 75 136 192 135 43 21 -13 -10 -24 26 30 36 39 48 48 56
202 249 283 248 264 244 291 46 234 111 222 216 213 196 173 123 108 94 83 56 39 32 26 32 -4 32 58 101 124 175 150 104 14 -28 -30 -17 24 27 30 35 40 47 53
196 213 280 246 260 194 311 279 73 84 59 119 172 194 165 132 107 96 60 47 32 22 37 -9 20 26 47 77 77 131 76 21 15 -24 -29 18 26 24 33 40 41 43 44
192 198 189 234 193 163 162 142 101 90 164 119 120 161 128 114 91 76 56 55 49 25 26 16 26 24 46 43 28 91 64 25 8 -9 -17 31 33 34 29 32 39 44 44
178 165 134 199 116 123 72 127 36 -6 98 -45 53 90 87 91 74 74 50 53 28 20 8 18 15 1 11 21 36 58 58 34 24 11 21 41 44 42 40 42 43 47 38
160 181 178 148 127 157 154 112 48 7 -28 23 14 42 49 64 58 27 56 14 23 10 14 9 -8 6 34 32 27 40 51 32 30 13 23 58 52 49 49 44 38 42 51
137 162 184 212 157 146 243 181 120 103 25 50 21 20 36 49 -1 65 24 17 16 18 6 3 21 28 29 23 19 36 42 58 37 23 10 66 70 69 60 54 54 52 67
143 146 170 176 202 146 94 107 176 158 33 -22 14 -7 -30 -25 -30 7 5 10 16 -9 19 25 31 21 18 22 27 36 40 58 45 32 24 35 64 85 98 84 72 89 93
115 121 153 97 76 97 97 206 204 207 18 -4 -15 -22 -38 -77 -6 21 27 38 -4 17 50 48 47 31 27 31 35 37 40 64 77 48 58 55 104 152 134 106 102 115 99
105 88 86 74 94 102 40 61 61 1 -31 -20 44 -11 -98 -44 6 58 0 -19 1 46 69 74 75 54 42 51 40 39 46 61 66 95 71 105 120 142 146 141 109 107 92
86 100 110 73 87 68 73 7 -18 -22 27 -77 -127 -155 -49 -11 -37 -21 -4 23 66 104 135 124 92 83 71 81 73 70 83 93 84 92 139 126 130 149 157 134 114 99 97
10 -7 10 0 11 -16 -70 -13 6 -43 -87 -146 -121 -78 -50 -45 -25 6 29 71 126 145 154 145 122 93 104 106 113 146 139 120 99 122 124 161 166 222 228 173 152 137 128
-48 -82 -50 -60 -70 -96 -92 -76 -129 -151 -112 -97 -85 -69 -43 -17 14 43 90 119 141 172 161 149 160 131 144 144 192 189 154 126 164 166 150 140 151 195 195 166 168 143 168
-56 -133 -45 -57 -80 -101 -69 -58 -84 -58 -57 -54 -61 -43 -6 -1 39 97 143 146 139 167 159 157 184 183 170 221 251 231 244 239 223 211 189 168 145 175 165 206 179 218 177
5 -23 -41 -54 -62 -62 -33 -40 -65 -48 -56 -55 -60 -37 -3 69 89 133 147 142 172 181 148 177 198 212 229 272 244 257 266 276 258 237 164 182 184 202 216 220 208 226 235
81 13 3 -40 -45 -12 -1 4 -13 1 2 -11 -7 5 70 140 144 151 172 176 244 242 229 192 205 249 289 240 345 296 335 293 313 302 294 176 227 211 201 210 234 219 258
102 86 77 53 66 38 21 41 13 19 36 27 8 13 104 168 201 167 181 183 204 249 223 225 316 298 378 325 556 410 406 312 143 197 242 209 239 242 185 226 221 225 279
134 123 109 83 68 35 -8 -28 30 63 63 97 118 117 159 236 238 191 209 265 231 281 281 273 331 370 369 398 358 387 326 352 189 200 274 191 174 164 250 220 186 248 348

GFSSE_con_3kmhel_072.txt.gz
Helicity
104 146 190 225 435 176 229 181 233 245 212 201 192 183 191 203 200 173 164 170 145 119 104 98 98 104 104 92 80 81 84 98 77 61 57 61 70 68 80 98 97 66 78
65 114 216 224 325 200 178 150 185 218 188 192 184 184 178 181 177 181 173 155 130 112 98 99 111 116 96 75 53 53 61 69 84 80 68 62 63 59 71 83 77 67 71
122 93 167 264 280 224 131 153 197 184 176 170 172 171 160 157 169 183 162 140 119 105 99 100 97 86 71 54 4 19 70 50 69 76 69 34 31 59 54 52 65 79 90
55 126 161 242 268 435 71 76 175 168 166 162 154 152 163 163 180 175 149 119 94 86 82 79 80 77 60 50 51 104 90 71 73 81 49 37 32 45 36 37 51 57 71
32 35 120 184 135 157 128 154 114 191 175 145 138 157 167 161 170 149 127 94 76 71 63 65 77 83 71 44 51 68 72 75 67 46 29 25 17 32 39 49 61 67 58
98 102 35 112 139 158 80 112 81 217 192 163 154 159 139 132 143 131 113 80 59 56 61 72 89 107 89 66 68 59 45 40 35 16 16 23 2 40 42 53 57 67 59
194 190 88 279 344 368 198 104 203 195 180 136 150 137 127 133 125 115 84 61 62 58 63 69 105 135 116 93 85 64 34 18 -9 -6 -3 -15 9 36 35 45 52 52 50
246 269 290 270 154 63 -9 35 252 177 217 162 256 183 146 110 105 105 86 76 70 73 71 75 107 126 92 97 63 50 27 9 -23 -19 -11 -18 27 33 36 41 45 44 53
265 285 234 232 227 222 131 254 322 196 182 229 210 172 139 132 122 105 88 79 75 73 76 67 88 132 123 100 64 40 24 14 -27 -31 -7 -19 23 25 30 34 42 48 51
236 260 205 202 240 162 171 119 308 245 107 197 199 170 163 133 117 105 90 76 72 61 60 61 76 130 187 157 90 62 36 16 -20 -28 -25 -23 14 26 35 38 38 41 44
182 201 187 156 217 219 239 410 167 105 61 136 221 202 189 141 126 103 81 78 64 52 49 78 110 119 186 182 74 61 29 -33 -26 -35 -18 17 24 31 33 30 25 22 26
134 145 154 158 175 207 278 296 317 237 134 137 208 226 171 138 113 85 84 70 67 64 75 98 100 91 134 105 42 54 12 -12 -33 -38 -14 20 24 30 29 26 27 26 30
113 147 168 164 135 123 61 59 25 103 75 162 143 136 150 151 120 125 106 73 60 56 49 48 42 48 76 76 60 34 20 6 -17 -28 -9 27 28 28 28 24 32 39 37
109 122 146 128 101 85 70 62 89 65 8 156 202 172 109 151 89 66 43 47 39 25 36 17 28 41 53 52 49 28 25 14 -4 -13 -13 32 31 33 37 47 52 43 34
111 102 109 67 74 28 70 61 34 36 118 52 29 -6 30 37 27 50 18 27 25 48 5 20 22 22 37 54 59 40 23 25 15 -1 -4 31 39 49 60 56 41 26 32
105 107 116 80 55 23 69 66 61 117 153 45 -16 -26 15 19 18 34 20 3 32 22 14 12 3 20 33 44 54 45 25 23 21 14 -11 16 58 71 67 62 63 60 67
108 109 110 103 125 114 122 93 136 112 162 29 -24 -20 -10 -28 38 -10 25 5 19 24 32 28 23 33 38 36 39 39 51 40 43 26 18 34 49 72 99 111 102 87 75
108 92 82 101 81 47 63 46 79 106 181 116 28 -10 -21 -19 11 -16 -6 -9 40 -10 28 45 55 37 27 27 42 46 60 65 47 55 72 70 82 110 130 148 109 82 81
93 77 24 -7 3 21 60 78 137 169 127 53 7 -22 -40 -19 -100 -67 -72 40 -13 38 34 51 69 76 59 27 44 61 73 81 93 89 102 86 93 131 141 147 119 96 93
125 18 -3 24 47 39 50 125 159 220 53 31 -74 -100 -77 -103 -86 -49 -55 -24 29 65 67 109 122 90 91 86 79 87 99 107 124 144 129 113 106 136 143 145 124 105 100
61 27 -18 29 12 14 3 57 28 -13 -46 -67 -73 -102 -117 -115 -80 -51 -8 19 49 106 127 133 145 125 107 126 170 146 143 123 130 149 150 171 154 159 167 172 157 148 136
12 -20 33 75 40 25 -52 -57 -46 31 -20 -72 -101 -143 -136 -97 -53 -8 43 71 109 138 167 185 199 179 135 190 211 216 210 193 174 180 202 211 176 161 195 204 203 191 173
-26 -98 -52 -62 -78 -93 -93 -100 -61 -68 -136 -175 -163 -141 -116 -83 -31 35 79 124 149 158 162 168 185 192 190 213 287 372 323 207 260 306 239 197 170 209 208 252 237 228 220
-7 -121 -102 -101 -85 -128 -138 -149 -154 -149 -159 -149 -138 -107 -90 -38 1 37 65 119 165 160 179 191 194 212 230 224 328 370 375 319 368 262 339 292 172 184 193 232 271 278 278
70 -4 -65 -58 -44 -74 -88 -78 -83 -100 -88 -77 -57 -50 -43 -23 24 84 108 134 188 186 190 209 227 214 212 268 418 426 456 423 480 377 294 282 265 164 226 197 234 231 274
107 88 23 -14 -28 -24 -41 -43 -25 -5 -32 -35 -6 9 15 27 47 85 126 142 172 209 217 213 224 232 261 349 417 497 497 461 412 365 297 248 183 155 149 202 221 210 233

GFSSE_con_3kmhel_075.txt.gz
Helicity
35 135 110 138 183 234 346 537 411 230 315 307 278 261 253 239 240 222 192 180 175 160 138 122 123 110 105 95 89 97 90 72 54 54 68 75 76 72 82 64 72 62 101
70 123 155 159 206 346 422 450 330 215 236 269 237 258 258 254 249 218 199 186 183 174 161 130 112 97 86 63 51 64 90 101 84 73 74 77 75 74 72 72 63 71 87
79 90 153 210 223 329 433 446 232 220 161 176 196 222 231 237 207 203 210 212 188 160 130 94 71 58 49 64 66 67 73 84 87 82 93 61 55 67 79 86 88 89 89
60 155 202 303 269 228 266 277 277 179 116 162 179 197 214 202 176 191 207 195 158 128 108 91 66 40 18 64 66 58 60 73 77 85 86 64 39 62 73 78 70 78 75
27 146 231 387 187 206 146 67 218 447 111 172 207 210 206 227 154 169 182 161 137 120 102 73 57 51 69 83 67 66 69 77 88 69 57 43 25 54 70 66 62 60 58
41 123 129 301 230 292 139 101 126 172 138 98 224 237 182 201 140 142 159 167 139 129 111 75 44 44 58 55 44 34 44 58 49 33 17 31 14 55 56 57 54 57 55
80 116 123 229 362 534 454 111 129 205 355 104 234 211 178 175 133 159 168 182 158 145 117 74 50 63 59 45 37 38 35 38 9 9 19 11 11 39 43 43 42 50 51
75 77 147 201 274 415 244 123 97 146 204 175 207 194 186 190 146 160 157 161 151 145 129 81 73 81 61 40 34 9 -7 -3 -8 -4 1 -6 26 32 38 36 36 35 40
149 183 214 198 219 192 13 -27 77 56 126 128 173 187 176 191 148 160 125 134 137 161 143 112 86 54 47 35 36 12 -4 3 -15 -3 5 -9 26 26 25 29 34 40 45
188 240 271 206 95 278 174 271 76 375 177 133 99 167 214 196 179 108 105 124 141 158 167 131 83 34 39 48 29 9 6 8 -9 -3 -14 -17 17 27 37 40 35 32 32
142 166 187 191 190 236 144 164 280 125 191 232 137 255 364 250 132 108 109 121 127 145 180 147 114 74 45 45 24 19 18 -31 -13 -17 -29 8 24 33 29 27 24 24 24
116 123 90 135 167 288 201 193 366 206 202 92 109 227 232 200 130 110 95 96 115 129 151 162 127 111 62 42 26 33 -0 -16 -19 -22 -26 12 30 29 27 22 17 24 19
88 121 111 106 149 216 259 303 320 148 162 147 128 192 187 181 155 123 118 109 103 104 114 148 135 102 48 29 39 26 -3 -18 -29 -14 -6 12 20 26 27 25 22 29 29
63 101 125 119 152 159 196 283 191 214 303 106 78 194 227 187 128 105 92 79 87 95 104 119 130 81 90 38 32 28 8 -13 -28 -29 -15 3 18 26 32 33 34 39 29
64 85 82 108 128 89 127 92 27 79 67 45 128 110 101 128 126 88 93 79 56 66 72 67 67 88 70 50 44 36 11 -0 -8 -13 -19 12 12 15 30 38 35 38 38
50 69 92 73 78 76 85 130 -13 59 89 195 144 198 141 130 162 60 38 43 49 50 36 29 44 49 52 53 42 21 9 11 6 1 -20 -14 13 16 30 34 24 34 38
63 68 76 73 41 11 40 125 33 5 75 78 61 -15 -15 61 42 34 22 38 29 37 44 51 52 51 55 52 42 26 25 21 18 13 3 5 15 42 47 36 61 62 59
57 73 57 55 43 26 18 98 40 79 42 -16 -12 20 10 34 39 17 56 16 37 43 53 63 49 44 33 33 51 42 43 38 38 39 44 33 48 67 76 90 98 82 62
58 44 63 54 89 82 121 85 136 78 69 59 6 -8 -24 -0 -2 25 33 8 48 67 70 70 61 70 50 34 30 46 50 52 57 70 70 72 84 98 115 109 112 102 85
77 35 43 105 96 105 124 116 93 57 85 60 35 17 -6 -12 -1 23 49 5 34 85 96 85 85 77 72 64 67 46 53 62 81 91 103 120 121 121 120 122 121 110 120
121 -1 18 34 18 -7 100 73 47 39 88 58 -0 -14 -3 -63 -59 1 -54 7 53 102 80 75 106 103 102 108 125 101 88 74 98 88 96 130 151 118 121 130 136 136 133
83 34 -28 -0 28 32 38 47 58 63 134 2 -41 -52 -56 -46 -46 -49 -48 -12 -24 90 109 134 153 148 113 136 139 144 134 158 174 149 144 143 140 143 154 137 153 153 154
43 60 2 43 55 -18 -25 -11 91 62 85 6 -35 -102 -70 -57 -85 -76 70 96 89 108 129 147 173 183 173 189 195 203 203 197 187 193 173 247 248 179 184 174 163 160 181
41 -23 -4 -20 14 16 15 -30 17 -39 -41 31 23 29 -62 -91 -95 -78 -52 62 88 144 156 152 157 175 212 238 268 226 286 265 194 186 196 228 318 218 162 183 172 160 194
69 54 18 -37 -37 -61 -89 -102 -116 -81 -15 44 7 -68 -94 -93 -83 -51 -19 49 77 112 107 143 169 185 194 263 331 259 308 327 346 329 221 288 277 241 208 208 188 202 212
14 42 63 22 -37 -39 -98 -131 -123 -104 -90 -101 -124 -115 -105 -83 -77 -49 20 71 76 85 151 177 166 207 241 230 266 310 316 301 303 408 341 363 251 247 179 179 169 155 171

GFSSE_con_3kmhel_078.txt.gz
Helicity
51 109 137 145 193 158 192 181 277 375 348 335 317 347 288 267 242 226 197 189 190 159 134 118 99 82 71 75 79 78 65 77 89 79 87 86 75 82 82 109 139 124 138
92 100 164 206 208 181 195 190 249 354 344 316 286 283 291 250 252 243 236 217 184 146 126 106 91 79 67 84 101 110 90 79 91 94 95 80 85 71 100 119 123 113 122
119 138 189 174 185 198 155 149 202 288 327 294 305 301 265 263 248 265 243 209 174 134 117 100 82 72 76 68 77 92 88 104 117 113 83 74 81 103 114 91 91 92 89
106 138 265 297 306 258 179 115 112 221 267 266 279 255 242 236 268 262 218 180 160 124 91 69 72 80 65 51 56 66 75 104 113 112 93 89 71 87 88 80 68 63 59
113 164 236 385 480 357 95 195 72 120 194 245 234 232 216 229 270 240 205 156 137 123 97 63 52 62 53 46 59 72 88 103 106 91 78 77 58 61 66 68 58 56 60
166 194 231 263 312 287 266 223 108 67 88 159 181 175 188 234 233 223 216 153 133 116 83 54 81 64 60 53 50 59 72 84 80 53 44 41 31 60 57 55 57 45 48
198 173 173 261 248 192 213 132 74 119 75 148 153 202 177 231 241 228 213 139 132 89 67 75 65 58 48 30 35 40 40 42 15 18 21 16 24 45 44 46 48 47 47
167 106 152 219 260 196 124 97 71 22 128 179 200 250 170 259 219 209 243 164 120 71 61 78 59 42 24 25 22 9 19 24 23 31 20 6 30 36 42 47 43 41 42
61 94 159 199 214 169 113 131 123 228 165 243 238 232 197 292 273 264 225 159 111 82 73 72 52 26 11 7 -0 -2 13 23 17 10 17 -5 25 27 24 26 36 36 36
138 137 192 263 235 204 116 104 148 307 187 345 459 376 195 300 243 235 202 144 99 81 53 60 40 22 10 14 -0 -5 2 10 2 4 -6 -17 14 19 31 36 38 32 31
131 160 226 199 176 150 107 94 88 336 313 171 178 208 237 305 259 264 182 127 96 88 48 26 37 36 31 25 21 15 19 -4 14 4 -8 6 18 28 26 28 25 22 18
121 119 107 131 139 117 109 85 139 124 227 155 118 206 238 234 207 206 158 117 118 106 71 31 46 66 50 28 22 23 10 -3 3 -4 -22 6 14 19 23 23 9 11 16
140 93 88 93 146 153 177 189 336 400 525 336 184 215 206 245 242 285 201 148 156 148 119 110 75 43 34 34 18 20 1 -10 -8 -9 -13 8 15 18 16 17 15 19 17
151 104 101 85 117 141 167 273 371 312 418 337 114 176 200 299 279 246 179 179 139 109 110 76 47 45 56 65 3 14 -4 -13 -12 -3 -16 -0 9 19 22 22 26 27 22
145 100 101 127 118 102 148 236 281 203 138 251 232 123 216 208 202 146 143 131 97 84 79 72 55 56 68 8 28 26 1 -16 -22 -16 -16 -0 -1 10 20 30 32 28 23
123 73 107 135 110 72 93 94 119 236 199 127 91 68 151 143 95 100 85 62 62 75 54 60 60 67 27 46 35 12 2 -10 -16 -12 -14 -15 2 10 22 27 20 20 18
132 86 70 99 90 59 94 67 130 275 336 228 49 118 39 67 66 69 56 68 68 55 64 84 54 48 63 33 26 11 12 4 4 7 -5 -16 -9 6 19 27 13 29 48
140 89 75 70 79 59 55 51 101 92 144 115 160 148 146 107 114 27 88 61 44 44 59 46 27 52 41 38 31 14 13 13 9 17 26 19 13 21 43 38 48 52 50
136 110 86 71 97 68 60 70 109 159 155 206 230 120 60 36 20 125 87 40 31 51 57 26 44 60 43 37 28 28 30 33 28 40 37 42 43 54 67 70 99 90 58
155 88 52 66 72 99 86 127 162 176 239 176 238 241 76 -26 28 63 56 42 72 64 42 42 64 74 64 58 60 46 39 44 57 59 63 81 78 81 89 102 125 110 78
155 90 33 78 104 113 101 157 120 124 99 113 59 2 -38 2 43 61 50 47 86 37 60 68 83 73 86 86 99 74 58 51 66 91 113 103 106 82 122 144 143 140 117
145 85 53 78 65 80 98 147 135 119 79 77 53 33 34 50 40 57 50 74 44 46 64 94 102 104 113 121 108 108 74 78 115 152 151 140 128 132 149 191 161 143 150
123 88 61 59 4 11 53 143 130 135 125 97 45 30 11 33 54 52 17 -5 14 50 96 105 120 136 148 138 146 137 102 55 91 123 139 158 170 189 181 214 205 150 148
80 99 97 114 73 4 64 84 114 75 80 97 53 85 -52 -55 -45 -48 -51 -0 -4 69 88 108 137 170 189 181 189 193 225 204 128 118 97 98 143 203 229 243 169 185 172
77 75 104 124 102 113 55 61 16 -32 -40 50 33 -11 -103 -87 -94 -95 -44 -14 46 90 105 127 169 166 184 219 264 259 269 283 230 215 146 151 179 179 211 174 165 193 156
70 80 76 85 54 47 60 38 36 -24 -40 -53 -42 -59 -105 -124 -122 -103 -46 7 52 91 127 130 142 169 191 230 265 278 285 207 194 257 235 221 191 226 194 165 171 164 133

GFSSE_con_3kmhel_081.txt.gz
Helicity
83 107 125 146 201 174 158 163 166 189 226 252 245 238 150 191 179 205 166 132 117 125 117 96 78 80 81 78 67 72 83 89 101 109 97 101 106 126 144 149 141 155 167
119 145 139 160 157 168 153 153 152 190 222 250 272 218 187 263 228 228 225 207 169 141 117 98 84 83 79 70 73 93 111 99 89 92 68 104 107 131 141 137 123 111 117
122 112 134 165 185 182 147 167 181 182 235 277 252 231 264 268 260 254 257 236 149 124 108 89 72 77 76 88 94 81 109 133 120 119 111 82 87 108 115 119 105 94 101
99 143 153 206 211 181 159 199 174 182 208 258 295 258 280 252 277 236 245 206 146 125 106 92 77 73 75 70 76 77 77 104 87 89 74 72 78 79 80 88 75 73 74
107 186 196 197 203 237 240 205 156 144 128 174 284 256 277 246 238 217 230 172 156 109 74 92 70 69 62 66 75 71 94 84 102 63 73 71 61 50 60 58 49 67 68
102 189 255 219 225 242 266 215 191 266 54 145 242 223 218 204 234 230 228 158 112 70 77 72 67 61 75 63 62 58 68 89 60 62 57 48 41 46 53 46 56 61 62
127 202 261 180 186 192 213 151 237 279 167 99 140 177 204 215 240 241 186 163 172 136 83 73 65 62 58 56 51 50 64 63 45 44 37 38 34 44 39 34 33 42 51
141 202 209 159 144 161 133 154 232 231 142 259 90 103 176 211 245 270 208 198 186 136 104 75 48 38 43 37 30 34 44 41 28 35 31 31 37 39 34 28 31 34 39
119 132 144 99 118 98 69 80 165 165 209 108 114 125 193 222 233 273 237 182 148 120 77 47 36 26 21 28 33 24 30 27 21 18 25 21 31 23 24 24 20 20 23
147 115 135 208 167 181 127 121 20 80 95 138 67 136 221 271 272 308 234 161 89 91 54 43 32 34 20 10 12 21 31 15 11 17 11 11 11 16 16 14 19 23 27
135 159 153 185 190 114 115 131 70 74 117 151 180 302 324 370 276 243 184 120 87 80 62 44 36 20 28 11 17 13 -3 -1 -1 -5 2 -1 9 14 18 21 21 29 35
128 129 135 150 157 146 181 89 62 40 122 190 162 532 639 368 270 224 171 113 75 70 70 51 42 41 21 17 10 11 2 4 -0 2 8 6 18 22 18 22 28 32 33
110 135 105 79 103 63 52 60 61 56 198 352 376 438 615 288 252 219 210 218 111 66 43 44 36 4 5 9 -0 23 20 3 11 12 14 9 15 24 21 20 25 24 20
67 134 96 85 105 80 91 110 115 185 369 457 316 265 364 232 212 204 169 184 117 52 20 11 4 -6 10 13 20 27 12 -0 16 15 8 4 10 16 23 19 17 12 3
10 91 77 80 80 74 123 131 185 288 369 477 416 289 206 205 189 175 166 138 125 78 22 7 19 -1 12 31 34 25 -2 7 20 12 6 -0 5 11 12 16 8 6 15
45 79 66 79 87 89 108 157 243 579 721 392 251 207 184 154 149 157 131 186 90 57 36 23 10 15 14 19 23 9 -0 9 4 6 6 -5 -8 -2 3 10 11 9 29
64 107 75 69 80 58 79 170 194 131 245 329 248 156 166 146 128 100 137 130 84 41 83 34 42 14 21 23 15 -2 10 4 -2 -3 -3 -1 -3 -5 8 16 6 1 13
84 111 83 52 43 46 95 157 249 140 149 197 238 130 125 55 120 82 96 108 17 53 51 56 32 23 12 9 18 19 12 8 -2 2 4 11 4 7 9 7 6 16 32
69 124 87 46 23 41 87 67 176 177 197 138 155 161 123 143 132 122 109 65 74 79 49 32 25 22 3 14 25 22 22 11 8 12 5 17 28 29 27 46 41 70 63
82 132 108 87 63 74 86 82 125 225 260 130 184 76 24 92 72 101 84 111 90 88 13 31 38 23 5 24 42 40 31 21 34 42 44 52 52 50 49 51 56 78 100
89 138 73 91 59 68 99 85 146 203 114 55 71 68 91 79 53 69 57 100 65 22 40 65 35 27 29 40 83 55 46 44 52 62 69 78 78 72 81 103 72 95 130
87 113 22 46 83 78 76 94 81 166 143 183 290 274 153 97 53 71 71 82 57 29 47 73 55 66 63 95 79 86 59 69 66 79 90 110 116 125 115 129 110 126 150
97 108 70 48 97 118 120 167 115 132 246 211 270 248 135 18 20 5 -0 26 24 36 55 61 49 66 79 106 98 103 74 57 71 77 75 85 91 127 146 158 169 173 192
93 89 109 117 86 102 181 127 97 44 119 143 102 60 -160 -44 -47 -43 -29 -4 2 58 52 49 55 75 107 109 130 124 148 143 92 64 84 91 61 92 98 154 195 207 214
90 91 102 98 103 56 25 79 89 107 76 109 76 -21 -138 -122 -97 -85 -66 -44 -45 37 44 67 76 84 108 137 170 181 155 166 170 141 90 135 113 124 103 121 175 215 195
82 79 91 98 118 120 68 13 -16 7 31 9 39 -17 -84 -115 -115 -96 -48 1 39 50 55 81 92 91 116 126 148 184 201 186 166 182 173 151 101 122 111 118 133 182 160

GFSSE_con_3kmhel_084.txt.gz
Helicity
52 110 140 121 106 114 174 162 156 157 144 206 234 206 177 167 106 162 140 97 97 74 61 72 77 91 85 88 85 79 72 72 99 106 124 150 149 156 157 162 142 151 167
128 124 156 127 118 142 142 177 186 163 152 199 238 201 194 173 114 153 77 109 129 128 87 87 103 95 91 89 74 82 90 93 71 97 108 143 144 150 164 185 147 136 134
87 135 137 121 149 157 126 180 179 168 160 207 212 241 186 182 144 126 134 154 175 155 99 94 104 91 80 95 114 110 106 92 34 34 81 104 104 118 125 116 107 94 97
110 114 110 146 151 146 131 130 162 169 159 191 211 235 206 187 140 175 195 201 207 135 100 94 88 79 77 105 105 102 108 73 53 59 47 82 72 90 84 74 72 75 74
67 90 129 108 131 161 205 135 100 104 167 172 177 222 204 177 188 211 227 193 173 113 100 85 89 78 83 81 79 93 97 55 -31 -3 57 54 60 56 66 61 66 86 89
91 84 104 124 115 193 152 202 96 51 94 39 143 152 235 225 225 189 219 180 152 111 114 89 81 66 71 80 85 85 67 10 -12 56 50 21 55 59 71 78 72 72 67
138 135 94 102 125 212 237 133 134 123 72 226 159 183 211 196 235 186 211 164 115 130 116 89 71 62 74 74 70 66 25 -5 32 33 39 51 46 53 53 39 47 49 50
143 152 159 88 73 148 238 176 163 214 79 159 112 47 157 190 245 209 187 139 125 108 120 82 65 69 61 60 65 56 24 -2 12 43 51 38 28 38 35 37 35 39 42
149 139 126 71 32 117 235 206 161 151 161 117 108 36 94 193 204 194 202 180 167 111 113 85 78 63 51 50 53 34 -21 -33 29 28 25 26 23 27 26 31 36 39 36
141 114 119 67 21 47 157 170 106 84 72 143 122 121 98 107 214 237 213 194 174 121 115 94 79 58 40 37 33 -2 3 -30 22 14 28 24 22 24 23 28 33 27 34
131 124 143 100 29 28 66 114 10 -33 78 172 127 138 95 133 165 154 121 141 152 113 101 102 68 48 27 29 7 -9 -49 7 5 15 31 -2 25 29 24 27 26 29 30
91 119 152 150 115 36 -37 64 89 17 11 122 162 165 250 199 147 67 98 135 152 117 107 91 64 44 -14 5 10 -23 -4 6 12 28 26 8 25 29 27 23 24 25 28
93 123 120 141 104 132 131 70 108 89 118 94 124 175 294 300 179 94 119 134 173 111 90 58 39 -7 13 9 -12 -9 18 5 15 25 33 24 22 25 24 22 18 17 16
94 101 129 97 68 74 81 93 70 71 87 134 200 218 531 391 290 112 125 94 143 74 61 34 15 21 12 15 -7 17 23 23 31 21 35 36 29 14 18 16 18 17 15
90 77 93 57 46 68 74 90 73 63 122 262 307 705 604 441 318 140 122 81 85 69 35 24 20 8 22 2 11 15 23 41 36 28 28 23 10 13 7 12 12 6 6
83 63 80 51 39 37 46 100 109 114 278 449 705 457 292 339 268 102 116 94 101 77 33 20 18 9 14 -1 11 26 23 22 17 21 33 12 0 3 6 5 5 5 9
78 68 53 74 58 31 62 68 156 289 569 795 589 453 290 158 80 102 126 110 102 74 52 19 1 -4 1 9 24 21 17 21 14 23 28 27 17 1 12 4 3 9 20
88 64 72 66 56 51 71 100 206 462 863 646 348 241 -21 -21 83 99 101 138 84 58 46 3 -14 14 16 22 18 20 14 10 9 17 19 25 24 30 18 19 26 9 12
82 80 76 59 40 39 87 144 198 292 228 118 79 32 -90 66 93 129 90 70 83 126 99 79 25 10 17 7 14 18 12 8 13 14 17 21 21 21 46 86 26 30 46
90 93 80 16 37 50 97 144 188 214 362 265 196 165 63 150 185 80 148 87 117 132 68 16 14 26 15 9 8 11 12 15 24 22 22 30 46 33 29 62 75 61 95
100 125 107 34 36 44 87 129 150 194 243 240 244 198 265 222 -31 -6 52 20 92 21 1 11 17 35 16 32 34 25 26 28 37 40 41 48 50 62 58 61 83 79 175
102 131 98 23 25 60 63 125 115 208 180 263 336 266 166 39 -28 50 -2 67 48 30 -7 6 15 32 27 31 33 20 26 41 60 63 62 66 66 67 84 116 112 101 143
87 120 94 44 30 18 91 175 151 205 285 191 75 -9 -95 -155 -69 63 50 8 -20 -35 -2 -1 17 34 44 37 20 33 29 21 72 58 60 56 83 75 62 85 107 112 138
68 98 86 57 45 67 74 117 178 197 169 104 82 2 -53 -76 -23 -22 3 -2 5 19 7 19 27 31 35 38 54 41 45 73 51 60 78 98 121 114 101 115 118 87 126
68 73 101 104 77 67 92 97 113 180 98 118 119 146 85 93 0 -3 -4 -22 -12 -21 0 11 16 30 42 29 68 65 77 76 72 70 71 131 115 142 129 109 91 96 134
71 57 87 125 131 101 59 66 53 81 93 123 122 150 186 75 -84 -79 -85 -125 -96 -61 -38 1 23 37 50 47 48 64 77 66 63 83 89 88 113 144 102 177 123 118 129

GFSSE_con_3kmhel_087.txt.gz
Helicity
26 155 147 125 105 93 85 100 131 135 117 131 152 167 153 129 138 116 129 121 93 92 80 55 51 85 102 117 122 132 144 128 123 116 120 131 147 161 159 150 145 143 148
68 129 123 154 116 116 104 130 136 146 137 145 169 168 171 147 138 106 82 95 93 83 84 101 86 87 91 100 119 127 121 130 125 128 140 161 154 163 173 161 142 145 148
48 92 88 136 124 109 96 157 153 160 137 155 173 170 166 154 150 120 78 100 114 92 89 94 109 94 93 105 108 87 81 72 72 64 133 96 100 120 124 109 107 113 112
45 68 54 122 134 109 87 99 141 155 140 164 180 158 165 157 162 117 111 114 118 112 89 78 107 94 107 131 109 78 67 66 75 91 70 58 67 71 82 77 78 77 72
65 68 89 119 113 91 87 86 93 120 121 141 185 153 160 164 169 127 118 155 120 97 74 89 99 100 97 115 89 66 25 -34 -31 -29 25 38 44 47 49 48 62 79 90
68 90 149 102 101 105 118 113 167 125 66 92 146 134 149 142 183 146 150 158 123 86 97 121 105 88 102 94 65 21 -36 -40 -37 96 54 34 53 57 81 108 93 88 71
78 101 89 107 112 115 105 187 258 133 88 202 215 0 96 147 153 170 156 154 116 105 119 108 98 79 89 76 49 10 17 41 35 27 26 42 43 51 56 62 67 66 70
94 105 113 125 169 167 165 202 143 135 180 125 15 40 145 143 140 135 167 140 156 145 134 97 94 82 75 69 40 24 35 0 19 50 46 44 38 43 56 65 64 67 67
100 108 124 100 153 184 162 146 110 175 104 123 60 87 143 306 250 98 131 165 181 144 105 85 91 90 72 62 43 24 31 67 34 35 35 23 32 46 53 56 62 62 58
98 108 120 95 154 139 148 178 205 140 51 -1 94 83 -276 134 95 110 167 175 149 117 96 76 86 85 68 60 28 15 25 -5 33 21 27 30 32 37 46 59 52 50 44
107 115 125 85 130 152 112 139 260 215 135 5 70 52 -1 86 48 123 134 177 141 110 93 76 87 95 99 60 16 -54 -87 7 -6 38 39 22 29 39 45 43 36 32 37
95 128 119 105 126 95 89 152 143 96 68 136 111 75 168 112 86 88 148 170 147 111 103 89 90 88 42 49 -18 -16 -3 8 29 30 39 24 31 43 37 33 30 29 31
163 116 103 121 182 91 87 79 77 56 91 179 172 181 222 217 111 125 177 152 170 108 110 90 73 39 38 25 7 12 26 0 29 41 41 44 34 32 26 23 23 21 21
180 106 117 142 198 128 73 41 63 37 96 138 195 190 152 226 250 153 166 117 121 98 110 87 60 55 33 21 5 27 18 20 47 51 40 41 21 22 22 21 22 17 15
205 122 109 145 160 88 20 33 67 76 73 141 186 119 146 475 281 243 175 100 101 103 96 57 65 51 31 13 27 21 23 51 68 42 35 35 20 20 22 16 14 13 11
163 138 117 136 140 77 38 40 56 93 119 153 190 256 401 594 405 228 161 85 60 83 68 54 63 39 25 26 32 13 17 36 26 43 43 19 19 11 12 16 11 8 9
136 187 124 142 141 89 65 67 70 83 124 230 335 500 706 688 470 373 136 31 78 49 58 81 69 43 32 27 25 14 25 28 47 38 40 31 22 12 15 7 8 8 11
131 160 134 155 145 143 79 70 95 141 227 442 441 555 879 660 761 514 159 78 90 89 67 70 56 37 30 20 21 14 19 16 28 31 24 35 29 25 19 16 16 24 30
147 150 155 165 157 140 72 92 172 288 463 672 735 803 795 499 417 373 97 118 83 109 71 18 10 -2 16 13 26 22 12 12 19 17 27 26 48 46 59 82 60 55 48
163 152 166 204 163 89 70 139 216 323 521 696 614 503 269 209 228 65 42 118 114 120 5 20 27 40 44 25 20 19 10 15 22 22 21 38 48 40 53 143 107 88 69
164 154 177 214 121 54 83 194 217 294 273 193 119 13 187 217 41 -34 131 127 192 -34 11 46 80 46 36 32 25 16 13 14 21 23 36 46 57 60 51 77 171 97 151
147 122 188 187 93 68 98 168 224 176 182 200 101 89 -3 -69 -37 179 88 79 29 42 94 122 61 62 45 36 15 27 46 29 31 41 50 55 62 66 85 71 84 130 183
110 116 155 146 83 105 144 187 170 271 232 178 107 175 70 69 176 186 110 -45 80 154 105 47 38 27 28 15 15 28 46 53 52 55 51 58 83 83 77 111 113 90 136
96 91 116 125 86 86 146 184 204 232 214 159 92 218 271 321 139 125 68 62 81 8 15 -49 -20 0 17 21 30 18 19 51 54 58 61 76 75 102 137 131 129 122 128
123 99 99 112 115 83 122 144 219 176 198 183 156 274 191 -96 -15 -70 20 4 48 38 -5 -55 -10 16 30 49 34 35 27 33 46 56 59 117 149 130 144 149 189 136 128
130 100 109 108 127 129 118 139 137 160 200 202 168 149 78 -85 -67 -52 -70 -69 3 -29 -52 -76 26 -12 -10 17 32 38 43 52 54 68 64 59 135 213 234 206 186 163 125

GFSSE_con_3kmhel_093.txt.gz
Helicity
40 23 51 83 86 128 122 124 114 114 112 119 130 105 105 114 125 133 123 126 134 141 155 166 149 140 132 143 161 150 143 154 164 158 138 119 103 102 109 109 104 89 123
68 48 83 110 105 113 120 115 103 96 101 117 123 114 108 117 114 127 128 118 125 123 129 127 108 107 140 134 159 178 193 212 184 152 138 120 114 109 119 124 121 101 85
65 51 59 82 98 101 102 108 99 84 101 114 134 120 118 117 124 122 125 124 96 88 95 78 88 103 122 153 152 160 169 180 164 151 161 162 123 117 121 119 108 94 92
38 48 52 65 86 85 86 99 110 93 104 118 126 117 113 122 132 118 97 87 85 76 73 66 84 101 116 153 149 132 129 134 138 161 162 133 115 99 100 98 84 69 75
73 102 59 57 65 83 95 102 114 114 133 155 190 328 240 92 118 115 100 92 89 77 55 54 73 81 111 132 115 66 55 50 87 121 133 117 108 92 87 72 58 52 60
136 113 74 64 72 89 102 123 105 99 145 274 313 269 262 259 74 105 120 90 100 83 61 59 56 78 81 79 87 108 125 137 98 139 161 125 121 102 90 81 58 53 57
188 127 110 98 93 104 127 122 118 100 149 313 352 178 174 126 133 59 69 98 99 98 76 56 51 65 51 81 103 100 108 139 128 128 111 114 80 66 52 61 71 67 60
190 167 135 125 118 118 134 119 128 159 255 274 215 161 183 229 116 85 39 102 103 119 98 56 59 51 51 114 128 123 100 123 130 123 102 80 78 73 68 59 57 56 62
196 162 140 125 128 127 130 176 233 274 235 205 156 132 184 129 107 12 84 70 144 125 97 72 35 55 78 102 137 123 116 198 127 76 92 66 66 66 62 64 58 57 57
141 161 136 127 140 127 146 152 196 227 203 149 134 128 170 101 39 60 40 78 141 133 67 58 79 65 87 137 111 148 173 142 108 80 97 50 45 46 52 53 50 49 51
128 101 115 167 140 128 137 117 150 178 169 140 122 115 143 62 50 -21 111 121 129 108 98 105 79 81 74 109 142 224 178 113 79 48 61 36 45 45 49 51 50 47 43
108 76 132 149 127 153 143 127 153 191 193 170 164 135 111 31 91 35 175 137 124 106 100 104 91 98 97 145 170 231 172 120 83 44 23 25 34 41 45 41 45 44 42
140 176 204 144 185 142 179 154 204 238 150 133 140 110 82 38 -35 79 183 173 200 127 126 139 109 95 99 134 160 172 165 140 86 42 30 35 43 39 35 34 37 39 40
296 348 287 204 184 166 159 176 210 214 131 121 134 70 129 42 95 320 320 266 182 121 125 124 124 102 98 125 158 152 114 97 60 48 41 42 34 34 30 36 33 35 35
505 442 338 225 190 166 167 176 194 151 107 112 163 139 112 128 122 139 222 210 172 91 105 116 111 100 112 140 184 109 115 80 52 60 67 59 38 32 29 30 28 29 30
480 433 322 219 188 179 146 139 114 117 111 139 168 134 109 159 90 221 220 184 142 68 97 94 91 113 133 140 201 99 126 98 59 78 84 41 35 22 22 22 24 24 13
395 385 310 207 187 174 123 120 128 137 104 160 128 131 101 162 159 208 200 162 93 78 101 124 112 148 141 118 171 98 83 59 60 93 76 37 33 23 20 18 20 9 7
456 366 303 209 179 150 128 144 146 137 123 108 176 124 129 154 296 259 260 211 115 101 91 81 117 131 113 95 159 120 53 58 48 58 70 43 32 9 8 15 17 14 9
421 393 308 225 213 202 183 155 183 161 158 131 160 129 111 131 227 240 389 276 210 116 147 95 136 142 128 95 98 84 78 65 46 42 46 50 38 17 11 21 37 34 35
428 392 323 250 243 223 217 196 193 188 159 155 134 147 148 135 269 419 349 288 253 201 192 177 136 125 89 77 50 52 36 55 45 61 41 34 24 38 47 53 53 51 67
499 447 343 285 241 226 229 214 186 140 162 185 162 178 206 254 386 534 659 305 216 229 207 170 144 138 102 46 57 53 35 38 68 68 75 59 38 57 66 75 84 83 83
519 437 355 274 216 225 196 119 82 111 166 230 271 315 352 393 552 570 399 464 415 233 166 168 177 167 209 98 89 103 155 114 47 9 62 87 81 107 117 119 133 143 143
501 435 348 245 211 232 205 173 175 183 226 288 370 427 550 553 727 757 627 599 416 278 152 156 184 158 148 153 92 152 130 48 82 57 18 41 95 146 189 191 190 203 203
420 355 312 236 219 252 244 201 185 135 122 115 226 395 658 895 938 728 604 456 430 195 173 221 236 86 74 100 111 112 105 91 92 65 44 42 66 107 129 165 233 214 225
382 338 297 240 223 243 229 208 174 145 110 67 114 123 145 285 311 371 346 304 229 328 279 265 55 38 41 49 94 113 81 65 46 58 49 33 46 68 85 147 203 239 273
318 311 304 238 213 244 230 201 183 137 86 61 108 125 140 170 235 257 254 219 236 280 126 -53 21 59 76 61 68 78 61 60 49 79 81 69 102 95 117 140 189 241 281

GFSSE_con_3kmhel_096.txt.gz
Helicity
15 -11 19 56 73 126 163 183 191 183 152 139 140 138 156 185 204 205 196 187 173 151 149 185 202 167 124 117 143 145 134 134 124 119 99 91 88 100 117 142 145 121 131
48 13 52 70 106 136 135 150 173 179 156 139 138 129 128 139 155 171 180 177 163 147 134 182 178 151 121 137 163 174 171 169 160 146 103 81 84 93 105 105 115 114 142
45 20 44 59 90 108 111 102 136 157 150 147 149 134 98 114 126 135 147 146 146 138 133 134 123 113 115 162 183 195 208 204 198 197 180 136 91 109 129 131 125 110 94
13 15 44 66 68 84 96 88 98 118 149 174 180 173 133 116 112 108 118 115 131 140 112 107 99 103 134 167 183 186 196 219 197 184 178 131 122 119 118 112 100 80 82
46 67 47 44 44 54 78 100 106 122 161 216 287 336 340 232 123 93 79 96 123 132 97 76 96 132 148 156 154 152 154 177 169 177 201 160 122 109 106 96 73 65 65
83 98 78 48 44 54 87 110 132 147 198 262 346 358 345 330 323 165 71 44 101 119 90 80 99 122 134 114 120 162 171 184 213 200 199 159 139 121 94 70 71 69 69
120 89 122 100 96 85 104 120 134 177 271 277 328 311 328 321 297 308 148 56 54 92 101 96 82 106 120 140 184 172 162 159 176 224 209 187 126 110 73 56 49 54 64
161 145 132 130 116 110 118 118 132 214 289 299 356 242 181 128 159 258 203 85 41 92 119 91 89 111 129 182 194 163 150 128 145 173 187 150 111 86 65 59 60 55 61
177 173 155 135 156 143 140 101 123 184 270 273 223 149 96 59 109 251 139 23 49 125 101 79 96 118 147 178 145 142 122 113 127 131 156 102 86 65 56 50 52 54 49
174 200 186 141 150 158 173 146 176 216 214 201 181 141 115 94 110 180 141 277 36 118 68 87 107 153 171 184 83 112 122 114 119 138 132 91 71 48 47 45 50 57 51
146 182 195 108 119 150 168 170 175 172 209 183 189 201 182 165 159 139 238 113 20 85 49 94 105 146 164 160 121 189 160 122 113 112 105 70 47 52 49 51 49 47 38
174 214 163 107 119 133 137 173 153 162 201 218 213 201 165 134 136 136 89 80 84 67 75 119 79 159 205 200 140 141 148 102 84 100 86 32 39 49 52 46 39 34 31
166 236 161 130 116 149 163 146 170 165 207 219 162 158 126 95 122 81 97 89 96 116 144 108 104 156 244 175 160 176 128 66 37 68 41 40 47 50 50 53 33 29 23
255 206 217 183 198 181 185 175 160 174 203 169 109 107 128 105 88 80 95 279 217 222 125 104 129 195 205 211 134 169 110 74 60 51 35 44 50 46 43 42 27 23 22
290 289 306 255 233 208 208 188 167 182 175 144 91 96 97 96 89 76 176 431 253 184 138 94 110 149 250 180 100 155 124 111 83 68 68 59 52 31 38 31 23 24 31
305 400 372 294 238 224 220 206 174 153 164 129 110 105 119 108 135 197 400 237 217 169 156 65 93 148 245 177 124 123 109 101 78 86 88 53 40 26 36 23 25 26 29
396 474 396 307 231 165 190 189 154 154 158 127 128 123 141 117 168 190 430 211 185 144 146 91 145 194 273 203 146 131 109 75 78 100 102 75 46 38 40 14 15 17 12
514 471 394 286 208 175 205 179 154 138 127 145 107 131 130 127 185 211 154 145 112 151 128 103 156 201 245 172 140 118 92 67 73 95 92 81 50 43 20 6 2 6 6
470 473 373 269 216 199 206 172 145 144 138 110 122 120 116 126 180 226 163 168 195 164 127 131 198 201 240 186 135 122 76 61 50 68 69 66 54 41 16 -2 7 7 9
448 422 339 279 265 233 213 205 210 199 165 105 109 124 131 144 167 209 137 140 152 155 167 181 200 174 203 216 146 123 67 30 42 31 41 56 51 44 31 17 17 14 18
478 459 369 343 293 271 223 227 199 158 120 134 90 130 119 142 219 215 194 155 244 241 163 188 213 152 188 219 241 133 76 31 32 19 42 58 42 33 43 40 40 53 32
525 421 376 330 296 246 189 207 142 108 114 94 102 104 112 186 309 298 232 300 262 313 207 200 212 256 257 188 216 201 180 40 -2 64 105 73 37 39 29 38 60 70 85
534 424 389 325 298 255 205 247 145 134 116 115 114 103 121 133 209 270 354 501 280 378 343 229 195 210 181 236 138 242 291 261 69 78 68 66 63 74 72 72 88 97 107
512 397 357 331 301 246 238 235 154 112 134 128 147 199 231 150 175 309 456 507 324 543 344 186 161 187 219 245 311 160 108 101 127 25 83 66 80 98 103 102 125 146 158
510 392 342 325 272 231 221 205 142 114 108 134 183 241 284 308 305 322 439 600 618 502 437 213 234 210 183 168 245 159 153 60 104 88 58 67 71 75 84 122 159 198 219
452 363 344 305 247 218 207 180 142 128 115 134 158 172 217 418 600 679 722 668 602 544 432 304 202 197 180 226 132 124 111 94 73 80 48 41 71 83 83 144 182 201 217

GFSSE_con_3kmhel_102.txt.gz
Helicity
-15 4 22 46 89 126 151 152 149 153 177 189 205 200 179 183 171 156 156 143 134 124 119 130 139 132 126 129 124 122 102 92 102 128 113 102 109 120 135 134 123 105 106
34 -12 14 61 131 145 145 129 125 132 142 162 169 166 160 171 173 186 182 187 168 147 148 148 158 148 135 141 132 127 111 111 106 129 141 132 118 117 138 144 145 136 130
37 -12 -10 27 100 132 146 141 116 123 127 138 140 148 157 173 175 193 194 189 197 174 160 156 161 153 127 137 141 137 135 131 146 143 144 129 100 107 121 131 141 146 135
50 4 -25 -16 45 139 146 152 124 115 141 144 158 183 188 190 192 190 190 164 197 179 166 158 165 162 148 134 187 190 172 166 166 166 122 99 79 88 91 95 106 132 120
38 20 -32 -17 26 99 133 151 149 129 134 149 166 202 200 216 215 198 182 159 139 117 106 120 141 159 171 202 201 197 188 189 193 192 132 98 78 76 95 101 104 112 91
35 22 12 15 65 82 119 149 158 172 165 169 199 231 250 238 228 206 212 202 111 74 69 92 131 182 219 201 194 196 203 197 200 161 133 105 118 102 88 90 112 113 116
41 46 54 56 110 110 111 126 159 194 205 211 229 226 228 225 220 256 390 145 186 103 86 93 150 197 219 183 179 195 205 205 198 170 157 150 108 96 102 93 111 112 102
90 92 91 95 128 134 139 137 147 195 234 248 252 247 213 216 239 238 178 188 133 46 116 131 144 226 198 194 197 201 205 198 187 162 158 125 91 92 76 106 88 76 86
126 135 125 136 157 151 148 150 181 230 267 273 259 263 247 233 201 190 178 210 161 136 258 236 204 251 274 232 208 198 193 182 188 183 166 119 90 79 87 77 64 74 66
144 138 140 150 177 158 145 150 214 256 248 241 230 252 229 194 198 225 200 139 54 93 189 191 353 378 261 212 201 184 187 185 207 208 171 130 109 84 96 77 62 70 46
156 141 165 161 168 150 142 170 217 256 250 239 225 213 189 190 186 198 158 73 73 161 171 195 346 267 192 190 186 174 190 184 175 161 127 81 81 71 89 65 66 54 43
187 166 162 165 159 149 153 177 203 240 264 259 243 223 225 212 193 160 125 93 139 167 141 269 427 146 190 195 180 169 160 146 140 131 99 74 67 81 79 59 57 43 43
199 150 162 177 159 165 161 161 180 200 272 264 273 248 212 201 160 133 150 111 139 135 147 238 314 238 177 204 188 172 154 135 136 132 72 59 48 82 73 58 54 45 42
239 142 185 205 183 163 162 139 152 211 251 249 244 272 263 260 219 215 142 107 194 206 192 370 394 339 249 198 171 158 134 134 122 110 54 8 69 62 50 46 41 31 29
214 198 233 265 239 188 209 133 169 168 228 205 243 243 269 256 231 163 131 173 196 333 413 412 441 333 271 205 160 164 141 126 116 106 68 34 86 42 43 35 36 25 30
227 232 292 279 284 239 249 153 166 165 195 200 229 239 219 246 173 131 193 173 190 377 538 320 342 293 225 183 198 178 111 110 111 94 76 63 55 27 23 28 22 29 32
269 297 315 319 331 269 250 205 209 190 202 200 194 190 191 179 134 168 191 227 184 234 234 281 268 250 219 190 187 161 130 109 75 93 116 105 55 36 27 21 17 25 34
282 334 370 350 353 300 276 223 232 219 211 222 202 183 177 155 123 176 214 181 204 151 262 326 268 215 181 190 170 138 118 102 95 102 111 99 72 53 35 28 29 32 30
280 330 387 400 395 328 284 247 239 227 236 213 208 211 204 181 150 164 168 163 240 276 469 387 309 245 183 176 164 180 133 120 79 105 108 93 66 55 51 26 36 39 27
230 341 391 411 417 371 302 292 264 262 228 205 218 241 246 208 164 172 180 263 448 487 512 372 367 258 186 186 188 167 179 87 107 107 110 101 74 61 55 53 52 47 31
258 339 364 405 440 405 340 336 288 289 234 223 241 242 225 170 182 216 216 361 500 771 483 347 336 233 191 211 258 244 192 145 134 91 91 84 44 14 54 70 60 43 49
178 251 285 356 448 410 341 324 304 289 243 233 255 213 207 156 176 207 195 174 194 239 258 292 247 193 266 209 229 282 214 164 117 79 81 63 13 25 18 44 55 73 60
161 199 269 377 476 413 353 347 314 321 246 257 245 208 194 108 120 257 255 251 235 302 275 310 280 199 283 183 190 298 311 210 141 77 15 27 28 16 26 53 71 64 69
188 164 242 333 453 404 376 316 282 266 274 229 208 182 183 83 84 246 266 336 340 307 358 217 97 181 292 278 203 243 230 183 189 159 65 3 34 30 40 57 60 61 68
201 194 283 371 365 373 312 265 263 223 222 206 220 161 134 114 70 274 240 286 251 285 176 186 159 241 267 340 318 347 275 149 152 128 108 103 79 40 42 70 70 71 79
210 245 270 393 360 297 246 240 256 244 255 224 221 201 160 100 112 103 157 264 306 300 210 269 214 246 325 314 347 309 298 263 180 139 180 128 167 57 59 71 69 75 94

GFSSE_con_3kmhel_105.txt.gz
Helicity
58 42 26 41 52 100 161 180 135 120 126 141 134 136 155 154 152 164 148 143 135 131 120 103 115 117 116 115 106 107 107 96 93 111 126 119 109 108 108 102 79 86 95
73 36 19 30 66 134 155 131 120 116 119 126 127 123 143 145 168 187 177 155 130 121 108 115 113 116 119 113 122 114 105 113 107 108 111 119 120 116 121 118 100 91 115
65 45 23 33 68 98 120 112 125 125 122 122 127 133 154 149 174 177 198 166 138 133 109 112 128 125 121 129 137 148 140 112 133 153 130 123 121 113 123 128 128 124 111
83 67 35 44 66 83 97 112 111 116 110 115 129 150 158 171 185 188 178 179 183 159 141 121 118 115 114 171 175 157 140 149 166 144 98 95 97 102 112 120 114 116 112
67 52 31 53 58 89 61 100 124 122 108 106 130 166 179 180 186 200 175 156 180 143 139 124 131 131 174 154 155 171 169 179 156 85 73 65 55 77 89 96 99 102 110
52 35 47 65 78 106 96 88 103 115 129 125 140 165 189 216 194 154 241 150 156 112 140 171 150 194 209 174 163 180 180 157 84 86 57 58 51 87 108 125 125 118 104
53 36 53 87 86 117 101 113 124 137 132 143 167 184 193 191 216 244 192 109 99 172 120 189 192 255 221 224 201 183 182 145 89 75 52 51 74 78 102 111 114 113 113
85 52 73 110 130 134 124 115 141 160 170 178 192 207 209 202 169 196 224 216 135 167 96 146 195 277 230 218 198 194 184 144 87 66 55 47 79 81 72 96 128 119 120
111 91 92 104 114 130 134 102 134 169 178 210 207 166 170 183 151 196 213 167 92 134 110 151 209 248 263 209 220 254 201 138 93 63 48 53 81 83 76 98 133 149 109
130 99 95 118 131 134 133 117 137 181 194 210 215 210 206 193 165 155 147 139 145 169 105 169 234 234 259 248 251 266 208 145 81 59 49 68 69 83 80 68 92 98 86
135 122 106 123 129 139 137 114 162 181 183 215 201 212 221 207 190 144 126 131 146 133 115 215 240 289 304 248 284 231 163 105 82 63 50 85 76 67 90 82 58 74 73
159 151 130 113 129 138 139 119 153 162 162 184 186 184 209 203 205 184 147 114 110 61 79 201 265 339 332 338 168 167 116 94 69 53 56 63 55 45 39 81 47 68 73
171 164 167 130 132 151 149 147 172 186 173 181 187 248 231 244 239 225 211 157 125 73 98 247 257 276 297 296 133 118 91 78 68 55 67 65 65 48 35 54 49 54 66
173 171 166 149 158 158 154 152 181 180 176 175 213 216 241 270 248 207 186 137 121 116 148 250 247 280 271 140 137 100 89 72 61 59 65 63 72 46 22 36 47 56 56
99 166 183 188 193 194 172 163 173 179 159 150 178 207 220 260 275 162 199 177 98 133 181 304 303 350 306 119 117 111 97 74 59 56 56 73 73 54 4 30 47 41 44
100 115 166 199 225 219 207 181 176 206 167 175 163 159 164 197 206 230 164 135 123 154 255 405 426 507 321 103 128 105 93 65 63 66 54 66 74 43 6 41 34 33 43
85 120 186 219 257 245 218 204 198 220 195 190 178 157 163 151 188 225 154 107 138 266 232 496 514 383 313 118 100 94 99 81 65 56 61 78 70 13 41 49 37 38 39
69 121 197 254 272 292 270 246 225 251 238 189 181 167 149 120 142 164 139 166 203 355 309 549 530 484 307 147 125 109 97 77 52 49 53 70 52 43 68 47 55 37 32
70 109 180 236 253 320 291 264 245 260 264 217 191 173 131 141 134 147 117 187 326 304 288 450 356 294 250 141 149 112 113 74 62 62 58 60 34 50 54 45 49 43 42
64 72 136 172 216 317 351 293 273 285 263 246 217 190 149 172 145 121 127 176 318 259 290 179 233 324 152 122 132 127 123 92 83 47 62 65 56 47 32 32 34 33 39
60 54 96 167 224 344 367 354 322 309 275 272 239 198 192 200 206 183 146 169 166 277 390 426 390 419 192 157 205 219 166 116 86 66 67 53 59 45 48 44 26 23 30
31 33 58 119 185 250 312 339 320 314 261 267 243 208 199 194 220 157 149 163 175 265 546 387 515 419 323 131 180 182 203 162 117 76 52 36 48 53 43 8 18 28 32
47 45 40 61 139 157 257 352 326 323 289 288 247 229 202 213 211 150 174 236 281 365 560 847 552 382 432 215 136 219 244 181 132 76 38 70 66 45 0 -6 2 5 18
59 48 49 63 116 146 286 318 272 244 236 250 233 218 244 220 201 159 184 261 248 342 474 658 424 308 324 257 89 219 217 230 185 144 74 61 47 20 19 6 22 21 30
23 34 60 98 77 163 267 266 264 202 190 209 217 205 223 176 142 179 199 213 308 244 246 184 150 181 276 232 184 204 204 177 193 141 114 73 68 27 4 1 16 29 45
-35 -2 41 74 92 175 251 276 273 193 190 201 197 186 200 157 147 159 162 174 288 255 293 278 253 392 379 166 95 197 242 245 199 148 129 81 52 48 19 20 25 33 54

GFSSE_con_3kmhel_108.txt.gz
Helicity
90 101 55 47 57 78 108 120 111 104 130 156 122 115 119 112 115 110 119 108 100 84 80 76 86 81 94 97 106 120 122 101 101 105 109 108 103 104 91 78 71 87 89
96 80 48 24 43 74 100 92 89 98 113 121 114 112 109 119 129 123 119 129 105 103 93 80 83 90 90 105 119 120 108 99 107 118 112 112 107 108 100 107 95 85 103
79 55 38 20 53 82 90 65 72 82 83 86 98 115 128 129 135 138 166 133 127 106 92 86 84 84 98 118 115 111 116 113 112 78 27 56 94 121 133 137 116 102 113
66 63 41 36 66 85 73 52 64 77 75 80 106 132 137 155 155 149 141 145 148 124 103 97 99 96 126 146 144 131 130 114 78 12 74 101 91 119 119 108 105 112 114
68 53 47 50 66 61 73 60 56 67 76 86 106 133 156 165 173 171 138 128 127 121 96 85 93 149 142 164 170 154 127 90 22 -38 85 64 69 88 75 85 88 78 96
68 39 90 53 59 31 41 54 59 61 73 96 115 131 150 162 190 190 169 166 122 97 91 86 104 164 166 183 177 175 122 66 -30 29 105 22 63 79 64 82 121 135 123
70 39 40 70 85 41 34 35 47 63 88 116 130 143 158 171 154 161 179 151 148 137 127 168 164 162 203 221 182 158 93 1 10 33 47 65 72 88 101 106 125 121 128
85 69 54 79 93 86 56 43 49 69 96 129 161 180 173 137 154 170 151 147 157 121 179 145 185 161 221 218 193 153 77 -1 66 40 63 56 89 82 98 109 118 144 130
90 88 86 88 84 76 98 80 71 71 90 112 142 163 172 134 139 152 159 179 199 129 124 184 133 148 202 196 200 141 83 19 55 55 55 76 74 76 90 109 108 121 136
101 96 103 111 98 71 87 96 86 94 95 113 124 125 120 106 130 162 187 145 149 85 105 144 119 184 231 202 189 157 108 49 63 58 77 81 70 76 62 103 113 98 116
98 110 117 123 111 93 73 104 107 115 115 107 121 121 88 75 95 135 123 127 96 111 107 109 163 237 262 230 173 160 97 51 75 62 123 79 70 59 61 85 112 108 88
92 132 128 131 125 108 86 87 88 110 104 118 112 114 88 96 108 121 126 142 140 164 149 110 203 246 255 244 242 127 72 106 89 99 103 90 64 53 62 71 83 81 85
61 111 136 130 145 132 104 79 96 121 107 112 112 111 100 106 125 134 139 110 105 156 141 128 199 198 209 274 294 171 161 107 80 67 63 86 63 41 60 59 46 75 70
59 72 107 133 143 140 123 104 98 132 124 141 125 135 111 120 132 142 122 95 90 132 129 141 189 159 196 279 190 144 25 47 80 90 59 60 52 59 55 43 49 50 41
61 58 86 129 128 140 135 127 96 113 123 157 159 154 157 142 151 159 196 203 136 144 107 168 161 283 228 251 219 101 41 60 72 78 50 71 65 54 51 60 35 44 36
48 62 76 102 111 136 153 164 140 115 98 133 171 171 137 129 165 147 149 160 96 129 87 161 248 276 223 229 158 42 42 70 56 62 50 59 74 70 45 62 41 27 31
73 68 79 103 102 131 144 153 150 140 135 128 161 170 164 161 141 117 138 171 131 141 146 164 315 311 302 232 170 60 69 75 58 70 132 73 69 64 60 68 53 14 35
87 83 75 104 105 127 162 173 167 176 179 168 193 178 156 153 126 82 75 128 176 131 172 280 395 539 388 518 240 84 89 83 71 67 88 74 60 65 92 58 44 18 42
106 87 88 103 103 111 156 200 172 184 226 186 179 200 161 156 168 142 133 153 168 146 208 238 352 387 476 459 261 86 102 98 85 80 85 77 60 74 89 68 25 36 45
91 78 78 82 86 98 179 220 201 222 224 207 191 190 164 167 167 161 140 174 191 195 238 257 328 419 717 417 314 138 109 103 106 108 88 79 51 57 78 41 36 49 49
83 70 55 69 88 97 231 255 258 287 264 223 208 176 177 173 160 166 181 196 189 226 303 253 346 649 575 363 481 229 131 128 109 107 75 80 62 63 69 30 42 60 54
86 90 78 67 60 76 181 230 181 270 212 187 217 176 176 171 153 191 212 202 200 242 247 194 278 211 217 266 351 398 384 228 158 118 66 99 94 85 62 71 76 82 54
102 79 66 58 43 68 88 182 166 229 217 243 234 213 187 175 167 207 213 194 166 193 246 308 399 560 483 324 261 233 371 274 181 126 112 112 102 112 79 69 62 30 27
129 97 60 58 60 73 49 187 187 284 265 178 187 200 196 194 180 206 184 137 133 207 198 305 448 629 447 309 239 158 165 201 152 191 105 103 108 106 92 72 68 39 39
63 93 64 55 75 73 71 178 150 134 144 142 143 178 217 208 200 228 207 199 132 155 212 289 455 452 516 503 415 300 312 134 123 99 125 116 110 102 70 49 44 31 32
68 38 59 55 62 69 103 137 82 101 168 197 177 197 226 212 237 231 202 181 134 189 215 302 426 592 461 306 389 265 269 143 136 114 79 95 75 76 58 62 46 55 33

GFSSE_con_3kmhel_114.txt.gz
Helicity
106 97 141 111 103 105 110 100 89 76 69 74 56 41 45 49 48 50 53 53 54 58 55 47 45 53 50 49 80 101 109 108 106 116 126 147 116 88 73 81 94 92 100
115 101 125 99 89 92 102 105 89 81 72 63 45 41 47 47 46 46 52 47 41 53 51 46 51 50 52 64 98 108 102 106 109 109 120 144 116 85 69 120 112 97 112
116 107 78 77 76 84 92 82 65 60 59 53 47 45 46 49 51 53 57 56 34 65 62 55 57 53 61 73 81 88 79 64 46 47 64 107 107 105 114 118 93 102 119
99 79 61 62 70 71 73 54 49 49 51 46 50 51 52 46 59 54 59 56 50 74 66 59 59 52 57 69 67 61 40 8 1 16 80 72 95 90 97 106 85 104 122
83 75 65 49 54 57 50 36 34 32 33 38 50 57 57 60 66 66 60 61 71 80 80 68 61 47 60 63 65 50 4 -24 -40 -29 40 77 71 81 100 93 93 106 126
84 95 70 38 41 38 36 30 28 26 23 27 30 45 50 64 76 73 80 65 70 70 69 63 39 71 96 89 64 33 -8 -21 -54 -1 74 99 70 102 93 89 116 131 118
135 118 67 52 43 31 18 17 22 19 19 26 32 36 49 66 75 81 86 74 63 47 55 50 54 115 107 85 62 16 -26 27 -10 42 125 161 79 97 92 118 130 121 132
155 97 76 52 52 36 22 11 16 18 17 22 30 39 54 76 67 86 87 81 60 63 70 71 103 114 120 86 53 15 -18 22 16 78 111 130 107 95 94 106 121 131 124
148 106 82 52 50 42 31 29 33 40 36 31 35 43 58 46 61 69 85 71 65 71 70 97 112 94 115 89 55 13 -20 41 39 141 134 105 118 80 81 101 125 118 103
139 112 83 72 61 55 46 42 53 64 63 55 45 51 56 46 64 69 75 54 77 72 106 115 90 77 111 91 62 36 10 49 46 -27 116 103 106 95 94 95 109 107 94
130 103 80 78 67 70 74 62 67 78 83 86 74 68 74 62 65 66 67 79 93 90 113 113 97 81 140 121 72 72 68 36 60 120 163 90 84 87 94 100 94 94 81
142 94 89 69 76 71 76 110 76 80 90 96 107 100 77 84 86 98 108 113 135 132 132 141 133 112 144 111 85 121 95 98 94 175 114 79 80 91 77 82 91 84 83
128 92 101 84 97 88 74 136 91 97 87 93 112 104 106 103 92 108 124 133 155 167 176 203 182 155 134 145 121 121 84 76 139 80 70 103 83 59 53 72 77 83 75
129 108 100 137 136 115 67 117 86 122 103 100 88 111 102 105 114 133 147 164 160 176 159 190 189 173 180 184 129 134 121 166 182 132 111 129 109 81 54 47 70 80 66
155 196 205 195 187 152 73 108 80 208 120 83 86 92 82 117 158 155 148 165 157 163 156 235 216 176 175 147 109 158 190 229 175 108 63 78 90 96 54 40 62 64 76
33 206 291 298 260 198 147 90 144 226 190 112 131 116 110 127 168 164 154 172 137 127 122 241 225 183 151 167 140 152 177 241 154 122 55 78 96 101 61 47 53 51 66
66 48 241 288 326 250 173 108 143 206 183 122 169 132 125 118 177 197 204 173 135 121 165 233 194 178 204 168 145 164 232 200 150 122 78 117 75 92 54 55 57 53 56
102 102 128 265 287 302 207 161 128 198 236 184 128 133 110 111 153 211 204 195 160 119 174 194 228 220 238 210 184 182 192 138 132 64 94 104 117 102 77 60 69 62 61
58 86 124 188 260 263 174 150 167 197 209 252 226 150 133 139 138 179 181 221 188 177 190 206 224 214 254 241 189 188 155 124 94 47 153 95 78 106 108 93 90 76 64
85 71 145 213 234 292 223 118 152 202 184 211 230 218 259 150 160 163 169 202 265 215 252 268 256 200 231 258 193 151 203 141 177 220 165 121 34 100 118 121 107 83 72
146 196 205 170 165 253 293 219 170 215 271 248 262 296 242 160 183 163 179 204 322 325 308 283 252 241 245 170 203 258 245 126 148 132 144 85 91 135 123 138 120 97 73
216 195 217 217 195 212 222 220 185 160 273 287 312 241 141 125 160 157 215 239 345 351 302 284 284 282 207 202 178 253 225 242 202 183 176 170 174 170 152 120 103 102 93
222 217 204 173 183 147 133 211 229 357 375 354 282 180 168 193 190 196 209 289 342 365 320 283 253 254 214 208 176 279 388 342 324 222 169 162 151 150 152 101 82 62 95
181 174 251 221 191 163 159 195 350 386 331 263 243 218 195 229 187 200 190 303 307 350 324 294 275 219 204 194 169 368 486 571 509 274 158 169 146 122 140 103 82 64 100
108 130 132 70 110 143 167 175 292 280 241 207 182 176 144 143 173 175 245 370 308 328 307 316 273 237 197 183 221 441 584 557 637 463 291 293 167 123 102 128 80 90 145
76 109 112 78 111 97 119 149 225 212 207 218 155 144 183 164 194 205 297 339 305 323 325 288 256 216 190 186 247 375 314 411 441 482 399 364 260 118 127 115 105 104 101

GFSSE_con_3kmhel_117.txt.gz
Helicity
44 44 104 152 136 107 91 82 104 119 116 99 77 48 44 43 45 51 53 52 55 56 56 57 52 41 44 47 62 73 87 85 74 77 92 120 118 102 106 102 96 86 94
61 29 85 147 119 114 99 97 112 116 108 76 58 38 39 38 34 46 49 49 52 46 52 51 44 38 54 56 69 81 79 75 71 99 128 126 110 85 92 104 96 90 100
80 43 60 136 116 106 131 120 106 89 75 52 37 32 28 28 27 33 39 37 30 40 47 49 46 48 49 55 70 60 48 50 68 115 151 144 92 86 88 106 100 102 100
91 42 46 99 101 104 112 99 77 60 41 31 29 22 24 21 27 29 30 31 21 58 60 54 49 49 44 50 48 39 37 33 29 82 88 105 89 83 79 88 97 115 120
86 39 37 85 92 89 98 77 64 44 31 23 19 20 21 18 21 24 29 37 41 62 53 51 40 40 52 51 40 32 24 2 2 64 69 104 94 73 84 92 109 121 120
92 46 49 75 68 77 73 62 55 45 29 21 13 22 20 27 26 27 29 45 56 65 47 42 42 46 50 47 42 26 6 -5 42 78 49 71 66 76 109 108 100 113 115
129 85 73 62 57 58 62 54 40 36 29 28 18 21 27 32 32 38 38 46 42 44 40 40 57 59 51 33 34 19 26 5 81 67 76 87 105 100 96 103 116 121 119
149 112 86 57 46 50 58 47 32 26 30 30 28 25 34 30 34 47 50 44 40 47 46 63 69 73 58 35 30 17 35 43 75 74 113 81 104 111 100 102 119 116 103
181 144 94 51 42 41 55 48 37 21 21 29 36 41 46 40 46 49 66 46 42 46 59 86 77 77 59 50 35 20 59 84 72 86 115 41 101 101 93 97 101 106 101
191 143 111 70 63 49 41 56 58 45 34 34 45 65 65 66 56 60 68 48 50 52 80 110 91 82 57 49 29 28 87 93 113 58 64 47 85 85 88 86 102 105 97
182 144 120 97 82 73 71 54 66 67 53 52 41 61 81 78 62 65 67 72 71 74 98 115 109 83 60 58 54 32 93 132 136 99 11 73 85 84 78 83 86 95 90
207 156 128 110 103 103 93 94 84 85 82 68 68 59 77 92 85 84 78 90 98 105 124 121 119 114 112 80 49 44 83 151 211 166 117 108 79 75 84 90 75 82 77
201 204 143 121 115 121 123 127 111 98 102 88 84 85 74 86 91 106 104 120 143 156 177 168 164 141 119 105 66 67 111 178 167 169 156 160 89 79 95 78 70 67 71
205 202 163 123 131 122 162 147 126 127 119 117 103 109 104 85 111 126 147 163 182 183 204 205 175 130 138 124 104 92 146 193 162 166 114 115 54 82 71 59 69 76 65
237 204 177 173 188 167 160 162 134 139 127 133 117 100 120 102 110 138 172 195 203 196 210 208 183 174 173 176 110 111 167 205 194 222 136 108 91 69 85 49 54 71 66
254 292 267 225 246 226 189 203 160 178 144 135 126 99 86 111 124 155 185 205 209 201 179 237 209 195 193 164 110 113 149 204 222 213 177 96 64 31 75 64 58 77 65
102 272 340 317 300 252 177 181 223 222 207 168 156 146 120 121 163 179 179 195 202 177 180 207 240 213 193 163 115 133 147 175 222 208 186 80 62 98 78 62 47 79 50
34 104 266 335 333 293 215 164 234 256 236 196 209 205 168 162 179 193 186 192 195 218 254 263 255 232 218 198 159 141 175 235 187 201 146 98 135 108 89 53 64 74 56
56 75 153 332 343 323 309 218 167 281 235 223 246 218 228 214 211 231 221 199 211 234 285 296 273 267 243 212 193 169 175 202 208 185 146 105 128 130 108 58 75 80 67
96 108 228 352 381 363 370 313 216 187 300 253 218 226 201 219 223 241 235 202 219 235 284 311 277 269 263 198 200 179 148 187 172 108 138 94 124 103 85 111 91 106 91
125 180 192 364 379 414 401 327 336 227 197 273 280 238 223 214 242 202 211 225 239 262 279 310 289 275 307 281 249 185 141 133 164 186 122 147 147 55 48 108 121 138 97
256 335 356 248 288 270 262 227 277 274 229 220 255 308 335 301 286 197 166 214 254 321 316 326 331 321 308 294 304 244 170 211 209 195 184 216 169 90 107 121 133 133 116
292 290 297 315 233 195 170 227 314 304 319 296 301 380 362 313 286 211 191 211 262 336 344 323 318 308 293 271 272 284 230 187 285 125 206 196 204 157 66 112 119 129 120
321 295 273 285 341 310 237 197 278 299 304 338 365 414 370 237 230 236 202 207 261 308 331 321 299 275 295 263 233 220 212 175 248 324 265 195 224 188 92 113 120 140 128
285 311 269 266 265 284 253 197 269 318 271 363 401 360 313 263 224 275 215 246 247 297 299 321 311 316 306 288 233 268 232 216 281 233 356 269 260 159 145 123 131 128 128
546 520 490 460 387 325 360 303 127 227 292 360 333 302 230 179 250 269 263 252 240 285 269 273 291 305 324 244 216 217 210 297 352 408 420 422 282 209 170 110 118 104 118